Location: Bus
(50.0640°N, 2.9658°E)
Time: 17:57:51
(UTC+00:00)

Daily predictions for brighter satellites

Satellite Brightness Start Highest point End
(mag) Time Altitude Azimuth Time Altitude Azimuth Time Altitude Azimuth
ATLAS CENTAUR R/B 4.4 19:44:16 10° WNW 19:50:29 64° NNE 20:07:17 10° ESE
IRS-1A Rocket 4.3 19:51:59 10° SSE 19:57:30 89° WSW 20:03:04 10° NNW
USA 234 4.1 19:51:51 10° ENE 19:58:12 55° NNW 20:04:33 10° W
Cosmos 923 Rocket 4.0 19:55:25 10° SSW 20:00:44 75° ESE 20:06:06 10° NNE
OBJECT-B 2.7 19:58:05 10° SSW 20:00:57 30° W 20:03:52 10° NNW
BREEZE-M DEB (TANK) 4.1 20:01:12 10° W 20:04:11 42° SSW 20:12:02 10° SE
Cosmos 2219 Rocket 3.1 19:59:28 10° NNW 20:04:37 36° NE 20:09:44 10° ESE
SJ-6B 4.3 20:04:10 10° SSW 20:07:37 35° W 20:11:08 10° NNW
Resurs 1-3 4.0 20:03:39 10° S 20:08:02 68° WSW 20:12:25 10° NNW
Cosmos 2056 Rocket 3.6 20:04:13 10° NNW 20:09:35 76° ENE 20:14:50 10° SSE
ATLAS 5 CENTAUR R/B 3.0 20:05:40 10° NW 20:10:39 43° NE 20:16:33 10° ESE
USA 186 4.4 20:13:34 10° SW 20:14:58 13° W 20:16:22 10° WNW
Spot 2 Rocket 4.2 20:14:16 10° SE 20:19:00 40° ENE 20:23:46 10° N
SPOT 1/Viking Rocket 3.7 20:15:05 10° SSE 20:20:12 61° ENE 20:25:22 10° N
USA 245 3.8 20:17:02 10° SE 20:20:57 41° ENE 20:24:11 10° N
Cosmos 1408 Rocket 4.5 20:17:31 10° SSE 20:21:16 29° E 20:25:01 10° NNE
Cosmos 1092 Rocket 4.1 20:16:02 10° S 20:22:21 88° W 20:28:44 10° N
NOSS 2-1 (E) 2.9 20:19:16 10° SSW 20:22:29 56° SE 20:25:52 10° NE
CZ-2C R/B 4.3 20:21:26 10° NNE 20:25:36 36° E 20:29:41 10° SSE
Cosmos 2026 Rocket 4.0 20:19:42 10° S 20:25:59 82° E 20:32:14 10° N
SL-16 R/B 3.3 20:20:47 10° NW 20:26:05 41° WSW 20:31:21 10° S
GP-B 3.2 20:24:01 10° N 20:28:27 63° E 20:32:50 10° S
IGS 5A 3.7 20:24:33 10° S 20:28:40 69° WSW 20:32:50 10° NNW
Cosmos 1151 Rocket 3.1 20:26:32 10° NNW 20:30:56 83° W 20:35:19 10° S
Cosmos 1371 Rocket 4.4 20:26:29 10° NNW 20:31:50 68° WSW 20:37:09 10° S
CARTOSAT-1 4.0 20:29:08 12° SE 20:32:53 46° ENE 20:37:03 10° N
NOSS 3-1 (C) 4.1 20:25:40 10° NW 20:32:59 90° NNE 20:40:55 13° SE
Cosmos 1680 Rocket 3.7 20:27:55 10° SSW 20:33:12 80° WNW 20:38:29 10° NNE
Cosmos 1271 Rocket 4.3 20:31:13 10° NNW 20:34:54 36° W 20:38:34 10° SSW
Cosmos 2112 Rocket 4.1 20:29:43 10° SSW 20:35:01 88° WNW 20:40:18 10° NNE
Lacrosse 5 3.4 20:33:37 13° SE 20:35:07 14° ESE 20:37:47 10° E
Cosmos 2333 4.2 20:31:19 10° NNW 20:36:57 75° ENE 20:41:51 14° SE
Okean 3 Rocket 3.6 20:33:11 10° S 20:37:41 78° E 20:42:15 10° NNE
ERS-2 2.5 20:37:03 10° N 20:40:42 68° WNW 20:44:18 10° SSW
Meteor 1-10 Rocket 4.3 20:36:20 10° N 20:41:52 64° ENE 20:46:47 13° SSE
MetOp-B 4.2 20:37:05 10° SSE 20:42:27 82° WSW 20:47:51 10° NNW
CZ-4C R/B 4.3 20:39:37 10° NW 20:45:06 29° NNE 20:51:29 10° ENE
COSMOS 2487 3.4 20:45:40 18° SSE 20:47:22 27° ESE 20:50:18 10° NE
Cosmos 1515 Rocket 3.6 20:43:49 10° N 20:48:14 66° ENE 20:51:44 16° SSE
COSMOS 2428 3.0 20:43:52 10° NNW 20:49:30 57° NE 20:53:52 17° SE
GEOS 3 Rocket 3.8 20:44:23 10° NE 20:49:37 77° NW 20:54:44 10° SW
USA 229 DEB 4.0 20:43:57 10° NW 20:51:14 79° NE 20:57:36 16° SE
USA 229 4.0 20:44:03 10° NW 20:51:20 78° NE 20:57:42 16° SE
COSMOS 2455 3.0 20:47:39 10° S 20:53:25 50° ESE 20:59:12 10° NE
Cosmos 292 Rocket 4.0 20:51:13 10° NNW 20:55:59 70° WSW 20:59:58 15° SSE
Cosmos 1328 Rocket 4.1 20:52:52 10° NNW 20:57:15 60° W 21:01:34 10° S
Terra 2.4 20:54:30 18° SE 20:57:42 43° ENE 21:02:12 10° N
Cosmos 2084 Rocket 4.0 20:55:22 10° NW 20:59:24 49° NE 21:02:26 18° ESE
Cosmos 2360 Rocket 2.9 20:54:01 10° NW 20:59:25 48° WSW 21:04:37 11° S
Cosmos 1766 Rocket 4.3 21:00:02 10° SSW 21:04:19 55° WNW 21:08:37 10° N
SPOT 3 Rocket 4.4 21:00:39 10° S 21:05:40 47° W 21:10:43 10° NNW
Cosmos 972 Rocket 4.3 21:01:59 14° S 21:06:06 43° ESE 21:10:45 10° NNE
NOSS 2-1 (C) 3.9 21:03:31 10° WSW 21:06:40 48° NW 21:10:06 10° NE
Resurs 01 Rocket 3.3 21:06:50 10° SSW 21:10:44 29° W 21:14:40 10° NNW
NOSS 3-1 (A) 4.1 21:04:27 10° NW 21:11:49 87° SW 21:18:16 20° SE
NOSS 2-1 (D) 4.3 21:11:24 10° WSW 21:14:32 41° NW 21:17:54 10° NE
Cosmos 2266 Rocket 4.0 21:09:42 14° S 21:15:03 64° E 21:21:17 10° NNE
Cosmos 1812 4.0 21:11:59 10° NNW 21:15:35 37° W 21:19:06 10° SSW
Cosmos 1553 Rocket 4.4 21:10:30 10° NNW 21:16:29 59° W 21:22:28 10° S
Cosmos 1862 3.9 21:16:55 10° SSW 21:20:50 56° WNW 21:24:44 10° N
Meteor 2-21 Rocket 4.5 21:17:26 10° S 21:23:37 85° W 21:29:49 10° N
ERS-1 Rocket 3.0 21:20:14 21° SSE 21:23:39 86° WSW 21:28:43 10° NNW
SL-27 R/B 4.2 21:20:27 10° SW 21:23:46 34° WNW 21:27:07 10° N
Cosmos 2228 Rocket 3.2 21:20:13 10° N 21:24:39 64° ENE 21:26:53 28° SSE
Cosmos 2285 Rocket 4.0 21:22:38 10° NNW 21:28:58 87° WSW 21:33:03 24° SSE
Cosmos 2297 Rocket 3.5 21:31:26 21° ESE 21:32:17 21° E 21:36:26 10° NE
Cosmos 1805 Rocket 3.8 21:31:35 30° SSE 21:33:28 51° E 21:37:44 10° NNE
Cosmos 2315 Rocket 4.0 21:27:12 10° N 21:33:35 75° E 21:37:36 24° SSE
BREEZE-M DEB (TANK) 2.4 21:27:42 10° W 21:33:43 58° SSW 21:34:37 39° SE
NOSS 0 Rocket 4.0 21:27:56 10° NNW 21:34:12 73° ENE 21:37:53 26° SE
SPOT 5 2.9 21:31:58 23° S 21:34:35 67° WSW 21:39:08 10° NNW
ARIANE 5 R/B 3.1 21:31:52 20° S 21:34:47 55° W 21:39:08 10° NNW
Cosmos 2333 Rocket 2.8 21:29:26 10° NW 21:34:54 51° WSW 21:38:33 21° S
Cosmos 883 Rocket 4.5 21:28:46 10° N 21:35:04 88° E 21:39:17 23° S
Cosmos 2322 Rocket 4.5 21:32:37 10° WNW 21:35:56 16° W 21:39:15 10° SW
Cosmos 2237 Rocket 2.7 21:31:47 10° NNW 21:37:21 52° NE 21:40:34 24° ESE
Cosmos 2322 4.3 21:32:20 10° NW 21:37:53 52° WSW 21:41:29 21° S
USA 234 4.1 21:34:23 10° E 21:40:40 51° N 21:46:58 10° WNW
Cosmos 1452 Rocket 3.9 21:36:15 10° NNW 21:41:24 56° WSW 21:44:29 24° S
Meteor 1-20 Rocket 4.4 21:40:21 27° SSE 21:43:13 53° E 21:48:49 10° NNE
Cosmos 1500 Rocket 3.7 21:40:12 19° SSW 21:43:19 76° WNW 21:47:48 10° N
NOSS 2-2 (E) 4.4 21:39:55 10° NW 21:45:02 75° NE 21:49:13 25° SE
Cosmos 2227 Rocket 3.5 21:44:49 20° ESE 21:45:19 20° E 21:49:21 10° NE
Cosmos 2219 Rocket 2.8 21:43:22 10° NW 21:48:44 48° WSW 21:51:54 23° S
USA 40 PKM 4.2 21:45:33 10° WNW 21:49:23 85° NE 21:50:40 38° ESE
USA 102 3.2 21:50:35 79° NNE 21:50:35 79° NNE 21:58:33 10° NNW
Sich 1 3.0 21:53:28 39° SSE 21:54:54 65° E 21:59:11 10° NNE
ATLAS 5 CENTAUR R/B 2.7 21:50:07 10° NW 21:55:32 55° SW 21:58:39 29° S
Cosmos 1515 3.6 21:52:49 10° N 21:56:36 72° ENE 21:57:27 51° SE
Cosmos 1331 Rocket 3.9 21:52:05 10° NNW 21:57:20 83° WSW 21:59:36 35° SSE
Meteor 1-27 Rocket 4.3 21:52:08 10° NNW 21:57:41 55° W 22:01:24 21° SSW
Cosmos 1110 Rocket 4.1 21:53:26 10° NNW 21:58:46 74° WSW 22:01:08 33° S
Cosmos 1743 Rocket 4.4 22:02:46 16° SW 22:06:02 47° WNW 22:10:19 10° N
SL-16 R/B 3.2 22:04:28 10° NNW 22:09:45 37° NE 22:12:56 21° ESE
NOSS 2-2 (C) 4.3 22:05:58 10° NW 22:11:04 87° NE 22:14:24 32° SE
Cosmos 1633 Rocket 3.4 22:10:51 43° ESE 22:11:31 47° E 22:15:42 10° NNE
Cosmos 494 Rocket 4.0 22:11:18 21° SSW 22:14:45 80° WNW 22:19:56 10° NNE
Cosmos 1666 4.0 22:15:50 26° E 22:15:50 26° E 22:18:51 10° NNE
Lacrosse 5 1.8 22:12:21 11° SW 22:17:15 63° SE 22:22:16 10° ENE
Cosmos 1666 Rocket 3.5 22:21:09 51° SSE 22:22:10 73° E 22:26:39 10° NNE
APEX 4.4 22:17:43 18° SSW 22:22:20 90° E 22:29:14 10° NNE
Cosmos 1602 3.7 22:22:55 55° SSW 22:23:41 77° W 22:27:32 10° N
SL-08 ROCKET BODY 4.5 22:21:32 36° SSE 22:24:03 67° E 22:30:12 10° NNE
Nadezhda 2 Rocket 4.5 22:23:48 31° S 22:27:05 88° E 22:33:34 10° N
Cosmos 1340 Rocket 4.2 22:28:39 26° E 22:28:39 26° E 22:31:38 10° NE
COSMOS 2428 4.1 22:28:40 10° NW 22:33:26 28° WSW 22:35:52 21° SW
Cosmos 1244 Rocket 4.4 22:30:49 34° S 22:33:46 90° W 22:40:04 10° N
CZ-4C R/B 3.3 22:28:16 10° NW 22:35:02 58° NE 22:41:11 18° ESE
Terra 3.4 22:33:24 19° SW 22:35:36 28° W 22:39:42 10° NW
Meteor 1-25 Rocket 4.4 22:33:38 28° SSW 22:36:39 67° WNW 22:42:12 10° N
COBE Rocket 3.7 22:36:50 51° S 22:38:00 83° WSW 22:42:48 10° NNW
Meteor 2-4 Rocket 3.8 22:32:47 10° N 22:38:45 79° ENE 22:40:46 43° SSE
CZ-3B R/B 2.4 22:31:12 10° WNW 22:39:22 52° SW 22:39:49 49° SSW
COSMOS 2455 4.0 22:33:48 10° WSW 22:39:30 42° NW 22:45:13 10° NNE
Timation 2 Rocket 4.4 22:39:26 37° SE 22:40:29 40° ESE 22:46:12 10° NE
Cosmos 1992 Rocket 4.3 22:36:24 10° NNW 22:41:35 58° ENE 22:43:15 39° ESE
Cosmos 2242 Rocket 4.3 22:39:39 10° N 22:43:51 40° ENE 22:44:34 37° E
Cosmos 1862 Rocket 3.5 22:40:18 10° NNW 22:44:39 77° W 22:45:19 61° SSW
Meteor 1-18 Rocket 4.4 22:41:30 10° NNW 22:47:16 66° W 22:49:18 40° SSW
USA 267 3.7 22:41:49 10° ENE 22:47:46 36° SE 22:48:10 36° SE
Cosmos 2219 3.2 22:48:18 45° S 22:49:54 64° ESE 22:55:36 10° NNE
Meteor 1-5 Rocket 4.4 22:49:36 45° SSE 22:51:18 64° E 22:57:12 10° NNE
Okean 1 4.2 22:48:40 10° NNW 22:52:24 38° W 22:52:58 36° WSW
Spot 4 3.8 22:52:09 55° S 22:53:13 79° WSW 22:58:06 10° NNW
Cosmos 1302 Rocket 4.4 22:51:14 10° NNW 22:56:18 53° WSW 22:57:32 43° SSW
Cosmos 1500 3.7 22:59:15 49° WSW 22:59:41 53° WNW 23:03:29 10° N
Cosmos 1980 4.4 22:54:38 10° NW 22:59:57 42° WSW 23:01:25 35° SW
Cosmos 1703 Rocket 3.7 22:56:31 10° N 23:00:51 58° ENE 23:01:20 54° ESE
Cosmos 2082 4.2 23:01:12 39° SE 23:01:49 40° ESE 23:07:08 10° NE
Cosmos 1378 3.4 23:00:30 10° N 23:03:58 58° ENE 23:03:58 58° ENE
Cosmos 909 Rocket 4.3 23:02:47 40° S 23:05:13 62° ESE 23:13:01 10° NE
Meteor 1-11 Rocket 4.2 23:05:19 39° ESE 23:06:21 43° E 23:11:34 10° NNE
Okean 1-7 2.9 23:05:00 10° N 23:09:16 69° E 23:09:33 66° ESE
Cosmos 1269 Rocket 4.1 23:10:35 39° SW 23:12:31 72° WNW 23:17:50 10° NNE
Cosmos 2297 Rocket 2.3 23:13:12 34° SW 23:15:44 74° WNW 23:21:27 10° NNE
Meteor 2-17 Rocket 4.3 23:15:38 47° S 23:17:29 83° E 23:23:34 10° NNE
Cosmos 2237 Rocket 3.2 23:16:14 10° NW 23:21:11 32° WSW 23:22:23 29° SW
USA 234 3.3 23:18:04 17° ESE 23:23:21 80° NNE 23:29:56 10° WNW
ALOS 2 2.6 23:23:09 64° SW 23:23:28 67° WSW 23:27:53 10° NNW
Cosmos 1461 3.6 23:27:18 45° E 23:27:18 45° E 23:30:57 10° NE
Meteor 1-13 Rocket 4.1 23:21:40 10° NNW 23:27:26 89° WSW 23:28:50 54° S
Cosmos 1709 Rocket 4.0 23:26:19 46° SSE 23:28:17 75° E 23:34:41 10° NNE
Cosmos 2227 Rocket 2.2 23:26:36 40° SW 23:28:44 77° WNW 23:34:26 10° NNE
SL-24 R/B - RUBIN 2 4.5 23:25:43 10° NW 23:30:49 52° NE 23:32:45 32° E
Cosmos 2263 Rocket 3.3 23:33:28 27° ESE 23:33:56 28° ESE 23:38:41 10° NE
Cosmos 2344 4.5 23:34:41 26° SE 23:35:59 27° ESE 23:42:09 10° ENE
Cosmos 1745 Rocket 4.3 23:35:14 37° SW 23:37:42 62° WNW 23:44:00 10° N
ATLAS 5 CENTAUR R/B 4.5 23:37:23 10° W 23:39:25 12° WSW 23:40:09 12° WSW
Cosmos 1536 2.8 23:40:44 72° ENE 23:40:44 72° ENE 23:44:36 10° NNE
PSLV R/B 4.3 23:37:43 10° NNE 23:42:16 43° E 23:42:34 42° ESE
Okean 3 3.3 23:41:25 10° N 23:45:43 86° W 23:45:46 86° SW
Cosmos 1241 Rocket 4.4 23:44:35 43° SSW 23:46:54 81° SE 23:53:26 10° NE
Cosmos 1869 Rocket 3.5 23:47:06 74° SE 23:47:19 77° E 23:51:47 10° NNE
Cosmos 44 3.3 23:45:39 10° NW 23:50:55 70° SW 23:51:25 65° SSW
Cosmos 1666 4.2 23:50:39 27° W 23:51:04 28° WNW 23:54:26 10° N
Thor Agena Rocket 3.6 23:46:53 10° NNE 23:51:53 58° ESE 23:52:34 53° SE
SL-16 R/B 2.6 23:48:36 10° NW 23:54:00 47° WSW 23:54:47 44° SW
